[[{"header":{"parameterUnit":"m.s-1","parameterCategory":1,"la1":30.2991,"la2":30.254,"lo1":-89.0895,"lo2":-89.0444,"dy":0.0017,"dx":0.0017,"nx":28,"ny":28,"refTime":"2024-03-30T21:00:00:Z","depth":0,"parameterNumber":2,"parameterNumberName":"U-component_of_WINDS"},"data":[0,0,0,0,0,0,0,0,0,0,0,0,0,0,0,0,0,0,0,0,0,0,0,0,0,0,0,0,0,0,0,0,0,0,0,0,0,0,0,0,0,0,0,0,0,0,0,0,0,0,0,0,0,0,0,0,0,0,-1.369,-1.369,0,-1.3696,-1.3696,-1.3696,-1.3673,-1.3672,-1.3672,-1.3671,-1.3677,-1.3678,-1.3679,0,0,0,0,0,0,0,0,0,0,0,0,0,-1.3659,-1.366,-1.369,-1.369,-1.369,-1.3696,-1.3696,-1.3696,-1.3673,-1.3672,-1.3671,-1.3671,-1.3677,-1.3678,-1.3679,0,0,0,0,0,0,0,0,0,0,0,0,0,-1.367,-1.366,-1.369,-1.368,-1.3679,-1.3696,-1.3696,-1.3696,-1.3673,-1.3672,-1.3671,-1.367,-1.3677,-1.3678,-1.3679,-1.3707,0,0,-1.3683,-1.3683,0,0,0,0,0,0,0,0,-1.3669,-1.3671,-1.3681,-1.368,-1.3679,-1.3683,-1.3688,-1.37,-1.3674,-1.3675,-1.3671,-1.367,-1.368,-1.3681,-1.3684,-1.3708,-1.3708,-1.3683,-1.3684,-1.3684,-1.3684,0,0,0,0,0,0,0,-1.3668,-1.367,-1.3693,-1.3681,-1.368,-1.3674,-1.3675,-1.369,-1.3683,-1.3675,-1.3673,-1.3674,-1.3679,-1.3683,-1.3684,-1.3708,-1.3683,-1.3684,-1.3685,-1.3685,-1.3755,-1.3756,0,0,0,0,0,0,-1.3669,-1.367,-1.3692,-1.3693,-1.3671,-1.3676,-1.3676,-1.3683,-1.3683,-1.3682,-1.3675,-1.3673,-1.3681,-1.3683,-1.3684,-1.3717,-1.3684,-1.3685,-1.3686,-1.3754,-1.3755,-1.3756,0,0,0,0,0,0,-1.3668,-1.3671,-1.3692,-1.3681,-1.3683,-1.3678,-1.3685,-1.3683,-1.3687,-1.3683,-1.3682,-1.368,-1.3681,-1.3683,-1.3702,-1.3717,-1.3686,-1.3687,-1.3752,-1.3754,-1.3756,-1.3783,0,0,0,0,0,0,-1.3668,-1.3671,-1.3682,-1.3681,-1.3684,-1.3709,-1.3686,-1.3684,-1.3689,-1.3687,-1.3688,-1.3687,-1.368,-1.37,-1.3703,-1.3718,-1.3688,-1.3751,-1.3753,-1.3755,-1.3781,-1.3786,-1.379,0,0,0,0,0,-1.3667,-1.3689,-1.3682,-1.3685,-1.3697,-1.371,-1.3712,-1.3703,-1.3691,-1.3701,-1.3699,-1.3687,-1.3715,-1.3702,-1.3705,-1.3721,-1.375,-1.3753,-1.3755,-1.3779,-1.3785,-1.379,0,0,0,0,0,0,-1.3691,-1.3689,-1.3681,-1.3705,-1.3708,-1.3706,-1.3719,-1.371,-1.3717,-1.3714,-1.3704,-1.3704,-1.3725,-1.3725,-1.3711,-1.3749,-1.373,-1.3734,-1.3748,-1.3753,-1.3757,-1.3757,-1.3689,0,0,0,0,0,-1.37,-1.3711,-1.3708,-1.3729,-1.3731,-1.3725,-1.3731,-1.3724,-1.3727,-1.3728,-1.3727,-1.3731,-1.374,-1.3747,-1.3756,-1.3781,-1.3781,-1.3794,-1.3798,-1.3802,-1.3805,-1.3818,-1.3824,-1.3765,-1.3765,-1.3765,0,0,-1.3717,-1.3717,-1.3724,-1.3734,-1.3736,-1.3747,-1.3726,-1.374,-1.3748,-1.373,-1.3748,-1.3748,-1.3751,-1.3774,-1.3783,-1.3774,-1.3821,-1.3805,-1.3808,-1.3809,-1.3821,-1.3827,-1.3832,-1.3766,-1.3766,-1.3766,0,0,-1.3754,-1.3755,-1.3772,-1.3775,-1.3778,-1.3774,-1.3778,-1.3778,-1.3777,-1.3795,-1.3782,-1.3792,-1.3809,-1.3812,-1.3815,-1.3854,-1.3843,-1.3857,-1.388,-1.3893,-1.3898,-1.3902,-1.3916,-1.3921,-1.386,-1.386,-1.386,0,-1.3774,-1.3791,-1.3782,-1.3797,-1.3801,-1.3786,-1.3803,-1.3806,-1.3812,-1.3815,-1.3805,-1.3826,-1.3827,-1.385,-1.386,-1.3863,-1.3868,-1.3857,-1.3898,-1.3902,-1.3906,-1.3919,-1.3924,-1.3862,-1.3862,-1.3861,-1.3861,0,-1.3816,-1.3829,-1.3842,-1.3848,-1.3855,-1.387,-1.3864,-1.3872,-1.3865,-1.3862,-1.388,-1.3881,-1.389,-1.3895,-1.3888,-1.3917,-1.3911,-1.39,-1.3881,-1.3913,-1.3925,-1.393,-1.3864,-1.3864,-1.3863,-1.3863,0,0,-1.3868,-1.387,-1.3875,-1.3877,-1.388,-1.3889,-1.3905,-1.3913,-1.3919,-1.3924,-1.3937,-1.3952,-1.3941,-1.3945,-1.3939,-1.3951,-1.3981,-1.3938,-1.3938,-1.3946,-1.4013,-1.4021,-1.4027,-1.3975,-1.3975,-1.3976,-1.4013,0,-1.3904,-1.393,-1.3923,-1.3949,-1.396,-1.3946,-1.3959,-1.3962,-1.396,-1.397,-1.3968,-1.3978,-1.3964,-1.3966,-1.3977,-1.3975,-1.3995,-1.3973,-1.3986,-1.3986,-1.3985,-1.4033,-1.4042,-1.4076,-1.4017,-1.4018,-1.4019,0,-1.3949,-1.3956,-1.3983,-1.3984,-1.3988,-1.4,-1.4008,-1.4017,-1.402,-1.4018,-1.4023,-1.4014,-1.403,-1.4012,-1.4032,-1.4018,-1.4023,-1.4023,-1.4024,-1.4024,-1.4004,-1.4034,-1.4087,-1.4092,-1.4026,-1.4025,-1.4025,0,-1.3984,-1.4,-1.4018,-1.4021,-1.4022,-1.4031,-1.4032,-1.4034,-1.404,-1.4047,-1.405,-1.4059,-1.4063,-1.407,-1.4064,-1.4051,-1.4086,-1.4067,-1.4084,-1.4084,-1.4091,-1.4091,-1.4145,-1.4096,-1.4096,-1.4096,-1.4095,0,-1.4024,-1.4041,-1.4033,-1.4044,-1.4063,-1.4055,-1.4074,-1.4073,-1.4076,-1.4087,-1.4075,-1.4086,-1.4078,-1.4088,-1.4083,-1.4101,-1.4103,-1.4102,-1.41,-1.4102,-1.4103,-1.4105,-1.4102,-1.4097,-1.4097,-1.4096,-1.4096,0,-1.4066,-1.4061,-1.408,-1.408,-1.4081,-1.4094,-1.4095,-1.4105,-1.4102,-1.4116,-1.4119,-1.4115,-1.4126,-1.4121,-1.4133,-1.413,-1.4153,-1.4149,-1.4152,-1.415,-1.4168,-1.4166,-1.4225,-1.4232,-1.4179,-1.4179,-1.418,0,-1.4091,-1.4104,-1.4106,-1.4112,-1.4114,-1.4125,-1.4131,-1.4123,-1.413,-1.4135,-1.4145,-1.4155,-1.4162,-1.4181,-1.4179,-1.4188,-1.4184,-1.4204,-1.4185,-1.4187,-1.4183,-1.4182,-1.4184,-1.4207,-1.4208,-1.4208,-1.4209,0,-1.4138,-1.4135,-1.4143,-1.4151,-1.4159,-1.4165,-1.417,-1.4176,-1.4168,-1.4176,-1.4188,-1.4194,-1.4206,-1.4216,-1.4224,-1.4225,-1.4216,-1.4215,-1.4219,-1.4221,-1.4222,-1.4221,-1.4161,-1.4213,-1.4213,-1.4212,-1.4212,-1.4212,-1.4172,-1.4182,-1.4185,-1.4195,-1.4198,-1.4203,-1.4213,-1.4212,-1.4221,-1.423,-1.4225,-1.4239,-1.4242,-1.4252,-1.4254,-1.4265,-1.4257,-1.4263,-1.4265,-1.4266,-1.4268,-1.4221,-1.4266,-1.4266,-1.4266,-1.4266,-1.4266,0,-1.4217,-1.4218,-1.4227,-1.4235,-1.4243,-1.4234,-1.4239,-1.4246,-1.4258,-1.4262,-1.427,-1.4283,-1.4293,-1.4292,-1.4301,-1.4309,-1.4305,-1.4312,-1.4311,-1.4312,-1.4275,-1.427,-1.4315,-1.4315,-1.4315,-1.4315,-1.4315,-1.4315,-1.4241,-1.4259,-1.4256,-1.4275,-1.4277,-1.4289,-1.4293,-1.4298,-1.4301,-1.4316,-1.4324,-1.4324,-1.4326,-1.4335,-1.4344,-1.4344,-1.4347,-1.4355,-1.4353,-1.4319,-1.4314,-1.4309,-1.4305,-1.4356,-1.4357,-1.4389,-1.4389,-1.439]},{"header":{"parameterUnit":"m.s-1","parameterCategory":1,"la1":30.2991,"la2":30.254,"lo1":-89.0895,"lo2":-89.0444,"dy":0.0017,"dx":0.0017,"nx":28,"ny":28,"refTime":"2024-03-30T21:00:00:Z","depth":0,"parameterNumber":3,"parameterNumberName":"V-component_of_WINDS"},"data":[0,0,0,0,0,0,0,0,0,0,0,0,0,0,0,0,0,0,0,0,0,0,0,0,0,0,0,0,0,0,0,0,0,0,0,0,0,0,0,0,0,0,0,0,0,0,0,0,0,0,0,0,0,0,0,0,0,0,2.8307,2.8307,0,2.8321,2.8321,2.8321,2.8284,2.8283,2.8282,2.8281,2.8296,2.8297,2.8299,0,0,0,0,0,0,0,0,0,0,0,0,0,2.8252,2.8253,2.8307,2.8307,2.8308,2.832,2.8321,2.8321,2.8284,2.8283,2.8282,2.828,2.8295,2.8297,2.8299,0,0,0,0,0,0,0,0,0,0,0,0,0,2.8272,2.8254,2.8307,2.8291,2.829,2.832,2.8321,2.8321,2.8285,2.8283,2.8281,2.828,2.8295,2.8297,2.8299,2.8347,0,0,2.8306,2.8307,0,0,0,0,0,0,0,0,2.8271,2.8274,2.8293,2.8292,2.8291,2.8299,2.8307,2.833,2.8285,2.8287,2.8281,2.8279,2.8298,2.83,2.8306,2.8347,2.8348,2.8306,2.8307,2.8308,2.8309,0,0,0,0,0,0,0,2.827,2.8273,2.8312,2.8293,2.8292,2.8284,2.8284,2.8311,2.8302,2.8286,2.8284,2.8286,2.8297,2.8304,2.8306,2.8348,2.8306,2.8308,2.8309,2.831,2.8431,2.8432,0,0,0,0,0,0,2.827,2.8272,2.8312,2.8313,2.8276,2.8286,2.8287,2.8298,2.8301,2.83,2.8287,2.8284,2.8301,2.8304,2.8307,2.8364,2.8308,2.831,2.8311,2.8429,2.8431,2.8433,0,0,0,0,0,0,2.8269,2.8274,2.8312,2.8292,2.8296,2.8289,2.8301,2.8299,2.8306,2.8302,2.83,2.8296,2.83,2.8304,2.8337,2.8364,2.8311,2.8313,2.8426,2.8429,2.8432,2.8478,0,0,0,0,0,0,2.8268,2.8274,2.8291,2.8293,2.8297,2.8341,2.8303,2.8301,2.831,2.8306,2.831,2.8309,2.8299,2.8334,2.8339,2.8366,2.8315,2.8424,2.8428,2.8431,2.8474,2.8482,2.8488,0,0,0,0,0,2.8266,2.8304,2.8292,2.8297,2.8319,2.8343,2.8346,2.8333,2.8312,2.833,2.8328,2.8309,2.836,2.8338,2.8344,2.8371,2.8422,2.8427,2.8431,2.847,2.848,2.8488,0,0,0,0,0,0,2.8306,2.8303,2.8291,2.833,2.8337,2.8337,2.8359,2.8344,2.8357,2.8353,2.8337,2.8338,2.8375,2.8376,2.8352,2.8418,2.8388,2.8393,2.8416,2.8425,2.8432,2.8431,2.8317,0,0,0,0,0,2.8319,2.8338,2.8335,2.837,2.8374,2.8366,2.8376,2.8366,2.8373,2.8375,2.8375,2.8383,2.8401,2.8413,2.8429,2.8474,2.8475,2.8495,2.8503,2.8509,2.8514,2.8539,2.8548,2.8447,2.8447,2.8447,0,0,2.8347,2.8348,2.8361,2.8378,2.8382,2.8403,2.8369,2.8392,2.8408,2.8379,2.8411,2.8411,2.8419,2.8458,2.8476,2.8461,2.8542,2.8514,2.8519,2.8521,2.8544,2.8554,2.8563,2.845,2.8449,2.8449,0,0,2.8409,2.8411,2.8441,2.8446,2.8452,2.8447,2.8454,2.8456,2.8455,2.8487,2.8466,2.8485,2.8516,2.8522,2.853,2.8595,2.8579,2.8601,2.8639,2.8664,2.8672,2.8679,2.8703,2.8712,2.8606,2.8606,2.8606,0,2.8442,2.8473,2.8458,2.8483,2.8492,2.8467,2.8498,2.8503,2.8515,2.8522,2.8505,2.8544,2.8547,2.8588,2.8604,2.8611,2.8619,2.86,2.8672,2.8679,2.8685,2.8708,2.8717,2.8609,2.8608,2.8608,2.8608,0,2.8515,2.8536,2.8559,2.8571,2.8583,2.8611,2.8601,2.8615,2.8604,2.86,2.8634,2.8637,2.8654,2.8663,2.8652,2.8703,2.8694,2.8674,2.8644,2.8698,2.8719,2.8728,2.8613,2.8612,2.8611,2.861,0,0,2.8601,2.8606,2.8615,2.862,2.8626,2.8643,2.867,2.8686,2.8699,2.8708,2.8731,2.8758,2.8741,2.8749,2.8739,2.8761,2.8814,2.8739,2.8739,2.8754,2.8871,2.8886,2.8897,2.8803,2.8804,2.8806,2.8871,0,2.8663,2.8709,2.8697,2.8743,2.8764,2.8741,2.8765,2.8771,2.8769,2.8787,2.8784,2.8804,2.8779,2.8784,2.8804,2.8803,2.8837,2.8798,2.8825,2.8826,2.8825,2.8908,2.8923,2.8985,2.8879,2.8881,2.8882,0,2.874,2.8753,2.8801,2.8805,2.8813,2.8834,2.8849,2.8866,2.8873,2.887,2.888,2.8867,2.8895,2.8864,2.8902,2.8876,2.8886,2.8888,2.889,2.8892,2.8858,2.8913,2.9004,2.9013,2.8894,2.8893,2.8893,0,2.88,2.8829,2.8862,2.8867,2.8872,2.8888,2.8891,2.8897,2.8908,2.8921,2.8928,2.8944,2.8953,2.8966,2.8958,2.8936,2.8999,2.8967,2.8998,2.8998,2.9012,2.9012,2.9107,2.9018,2.9018,2.9018,2.9018,0,2.887,2.8901,2.8889,2.8909,2.8943,2.893,2.8964,2.8964,2.897,2.8991,2.8972,2.8992,2.8979,2.8998,2.8992,2.9026,2.903,2.9029,2.9027,2.9031,2.9031,2.9038,2.9034,2.902,2.902,2.9019,2.9019,0,2.8943,2.8935,2.897,2.8972,2.8973,2.8998,2.9,2.902,2.9016,2.9043,2.9048,2.9043,2.9065,2.9058,2.9081,2.9077,2.9121,2.9113,2.9118,2.9116,2.9148,2.9146,2.9252,2.9265,2.9167,2.9168,2.9169,0,2.8988,2.9011,2.9016,2.9028,2.9032,2.9052,2.9064,2.9052,2.9064,2.9076,2.9094,2.9114,2.9129,2.9165,2.9164,2.9182,2.9175,2.9211,2.9178,2.9182,2.9177,2.9176,2.9179,2.9218,2.9219,2.922,2.9221,0,2.907,2.9066,2.9082,2.9098,2.9112,2.9124,2.9134,2.9145,2.9134,2.915,2.9172,2.9184,2.9208,2.9228,2.9245,2.9249,2.9234,2.9231,2.924,2.9244,2.9247,2.9247,2.9137,2.9229,2.9228,2.9228,2.9227,2.9227,2.9131,2.9151,2.9157,2.9177,2.9183,2.9194,2.9212,2.9212,2.923,2.9248,2.924,2.9266,2.9274,2.9295,2.9301,2.9321,2.9308,2.932,2.9323,2.9326,2.9331,2.9243,2.9324,2.9324,2.9324,2.9324,2.9323,0,2.9213,2.9216,2.9234,2.9249,2.9265,2.9249,2.926,2.9274,2.9297,2.9305,2.9321,2.9347,2.9367,2.9368,2.9387,2.9404,2.9397,2.9409,2.9408,2.941,2.9341,2.9333,2.9414,2.9414,2.9414,2.9414,2.9414,2.9414,2.9257,2.929,2.9287,2.9324,2.9327,2.9351,2.9359,2.9369,2.9376,2.9406,2.9422,2.9423,2.9429,2.9448,2.9467,2.9466,2.9475,2.9489,2.9487,2.9423,2.9414,2.9406,2.9397,2.9491,2.9491,2.9553,2.9554,2.9554]}]]